Satellite: OKEAN-0
Catalog number: 25860
Epoch time:      05293.60909129
Element set:     568
Inclination:      097.7514 deg
RA of node:       313.9491 deg
Eccentricity:    0.0001557
Arg of perigee:   116.3960 deg
Mean anomaly:     243.7405 deg
Mean motion:   14.73301608 rev/day
Decay rate:       1.35e-06 rev/day^2
Epoch rev:           33647
Checksum:              302

Satellite: NOAA-16
Catalog number: 26536
Epoch time:      05293.40635240
Element set:     579
Inclination:      099.0302 deg
RA of node:       252.6668 deg
Eccentricity:    0.0011326
Arg of perigee:   075.6077 deg
Mean anomaly:     284.6350 deg
Mean motion:   14.12281872 rev/day
Decay rate:       -8.1e-07 rev/day^2
Epoch rev:           26173
Checksum:              300

Satellite: NOAA-17
Catalog number: 27453
Epoch time:      05293.31638172
Element set:     600
Inclination:      098.6507 deg
RA of node:       004.8700 deg
Eccentricity:    0.0012448
Arg of perigee:   055.4170 deg
Mean anomaly:     304.8210 deg
Mean motion:   14.23713378 rev/day
Decay rate:       2.22e-06 rev/day^2
Epoch rev:           17264
Checksum:              273

Satellite: NOAA-18
Catalog number: 28654
Epoch time:      05293.30266371
Element set:     200
Inclination:      098.7576 deg
RA of node:       237.0818 deg
Eccentricity:    0.0014162
Arg of perigee:   177.5993 deg
Mean anomaly:     182.5260 deg
Mean motion:   14.10892500 rev/day
Decay rate:       -3.1e-07 rev/day^2
Epoch rev:            2155
Checksum:              292

/EX
SB KEPS @ AMSAT  $ORB05293.M
Orbital Elements  05293.MISC

HR AMSAT ORBITAL ELEMENTS FOR MANNED AND MISCELLANEOUS SATELLITES
FROM WA5QGD FORT WORTH,TX October 20, 2005
Send SUBSCRIBE KEPS/UNSUBSCRIBE KEPS to majordomo@amsat.org only
BID: ORB05293.M
TO ALL RADIO AMATEURS BT

Satellite: HUBBLE
Catalog number: 20580
Epoch time:      05293.69418412
Element set:     452
Inclination:      028.4665 deg
RA of node:       170.9215 deg
Eccentricity:    0.0004129
Arg of perigee:   167.2967 deg
Mean anomaly:     192.7844 deg
Mean motion:   14.99872010 rev/day
Decay rate:       8.32e-06 rev/day^2
Epoch rev:           64910
Checksum:              308

Satellite: UARS
Catalog number: 21701
Epoch time:      05293.33143696
Element set:     583
Inclination:      056.9769 deg
RA of node:       041.1586 deg
Eccentricity:    0.0100464
Arg of perigee:   115.2234 deg
Mean anomaly:     245.9466 deg
Mean motion:   15.26929212 rev/day
Decay rate:      2.214e-05 rev/day^2
Epoch rev:           77234
Checksum:              296

Satellite: PO-34
Catalog number: 25520
Epoch time:      05292.96191993
Element set:    0331
Inclination:      028.4586 deg
RA of node:       197.9784 deg
Eccentricity:    0.0005735
Arg of perigee:   142.4585 deg
Mean anomaly:     217.6407 deg
Mean motion:   15.16478950 rev/day
Decay rate:       8.16e-06 rev/day^2
Epoch rev:           38554
Checksum:              343

Satellite: ISS
Catalog number: 25544
Epoch time:      05293.92658565
Element set:     592
Inclination:      051.6439 deg
RA of node:       336.6719 deg
Eccentricity:    0.0001041
Arg of perigee:   089.9876 deg
Mean anomaly:     271.7569 deg
Mean motion:   15.74159957 rev/day
Decay rate:     1.9696e-04 rev/day^2
Epoch rev:           39547
Checksum:              373

Satellite: OO-38
Catalog number: 26063
Epoch time:      05293.42781396
Element set:     465
Inclination:      100.1955 deg
RA of node:       176.2655 deg
Eccentricity:    0.0037254
Arg of perigee:   063.0079 deg
Mean anomaly:     297.4887 deg
Mean motion:   14.35737609 rev/day
Decay rate:       -1.2e-07 rev/day^2
Epoch rev:           30026
Checksum:              317

Satellite: NO-45
Catalog number: 26932
Epoch time:      05292.54669672
Element set:     152
Inclination:      067.0560 deg
RA of node:       267.1666 deg
Eccentricity:    0.0003692
Arg of perigee:   262.1611 deg
Mean anomaly:     097.9081 deg
Mean motion:   14.29502136 rev/day
Decay rate:      -1.17e-06 rev/day^2
Epoch rev:           21157
Checksum:              302

/EX




----
Via the keps mailing list at AMSAT.ORG courtesy of AMSAT-NA.
To unsubscribe, send "unsubscribe keps" to Majordomo@amsat.org

--- ViaMAIL!/WC v1.60d
 * Origin: Chowdanet (401-724-4410) telnet://chowdanet.com  (1:323/120)